| time (UTC) | temp F | wind direction | speed knots | gust knots | rain 1hr in | rain 24hr in | rain mn in | humidity % | barometer mb |
| 20260906122803 | 71 | 93 | 5.2 | 0.0 | 0.00 | 0.00 | 0.00 | 94 | 1017.9 |
| 20260906122305 | 71 | 98 | 5.2 | 0.0 | 0.00 | 0.00 | 0.00 | 94 | 1017.7 |
| 20260906121302 | 71 | 84 | 4.3 | 0.0 | 0.00 | 0.00 | 0.00 | 94 | 1017.4 |
| 20260906120300 | 71 | 107 | 5.2 | 0.0 | 0.00 | 0.00 | 0.00 | 93 | 1017.4 |
| 20260906115801 | 70 | 91 | 8.7 | 0.0 | 0.00 | 0.00 | 0.00 | 93 | 1017.4 |
| 20260906115300 | 70 | 77 | 2.6 | 0.0 | 0.00 | 0.00 | 0.00 | 93 | 1017.4 |
| 20260906114759 | 70 | 360 | 2.6 | 0.0 | 0.00 | 0.00 | 0.00 | 93 | 1017.1 |
| 20260906113259 | 70 | 89 | 3.5 | 0.0 | 0.00 | 0.00 | 0.00 | 93 | 1016.7 |
| 20260906112759 | 70 | 99 | 7.8 | 0.0 | 0.00 | 0.00 | 0.00 | 93 | 1016.7 |
| 20260906112259 | 70 | 98 | 3.5 | 0.0 | 0.00 | 0.00 | 0.00 | 93 | 1016.6 |
| 20260906111257 | 70 | 76 | 4.3 | 0.0 | 0.00 | 0.00 | 0.00 | 93 | 1016.8 |
| 20260906110758 | 70 | 75 | 3.5 | 0.0 | 0.00 | 0.00 | 0.00 | 93 | 1016.8 |
| 20260906110258 | 70 | 76 | 3.5 | 0.0 | 0.00 | 0.00 | 0.00 | 93 | 1016.6 |
| 20260906105257 | 70 | 80 | 1.7 | 0.0 | 0.00 | 0.00 | 0.00 | 93 | 1016.5 |
| 20260906104757 | 70 | 87 | 6.1 | 0.0 | 0.00 | 0.00 | 0.00 | 93 | 1016.5 |
| 20260906104256 | 70 | 82 | 2.6 | 0.0 | 0.00 | 0.00 | 0.00 | 93 | 1016.4 |
| 20260906103756 | 70 | 67 | 2.6 | 0.0 | 0.00 | 0.00 | 0.00 | 93 | 1016.3 |
| 20260906103256 | 70 | 72 | 3.5 | 0.0 | 0.00 | 0.00 | 0.00 | 93 | 1016.2 |
| 20260906102255 | 70 | 48 | 2.6 | 0.0 | 0.00 | 0.00 | 0.00 | 93 | 1016.2 |
| 20260906101754 | 70 | 63 | 4.3 | 0.0 | 0.00 | 0.00 | 0.00 | 93 | 1016.1 |
| 20260906100755 | 70 | 101 | 2.6 | 0.0 | 0.00 | 0.00 | 0.00 | 93 | 1016.0 |
| 20260906100254 | 70 | 91 | 2.6 | 0.0 | 0.00 | 0.00 | 0.00 | 93 | 1016.0 |
| 20260906095755 | 70 | 97 | 3.5 | 0.0 | 0.00 | 0.00 | 0.00 | 93 | 1016.0 |
| 20260906095254 | 70 | 67 | 3.5 | 0.0 | 0.00 | 0.00 | 0.00 | 93 | 1016.0 |
| 20260906094254 | 70 | 59 | 2.6 | 0.0 | 0.00 | 0.00 | 0.00 | 93 | 1016.0 |
| 20260906093752 | 70 | 61 | 4.3 | 0.0 | 0.00 | 0.00 | 0.00 | 93 | 1016.0 |
| 20260906093253 | 70 | 38 | 2.6 | 0.0 | 0.00 | 0.00 | 0.00 | 93 | 1016.1 |
| 20260906092752 | 70 | 44 | 1.7 | 0.0 | 0.00 | 0.00 | 0.00 | 93 | 1016.1 |
| 20260906092252 | 70 | 36 | 4.3 | 0.0 | 0.00 | 0.00 | 0.00 | 93 | 1016.1 |
| 20260906091752 | 70 | 42 | 0.9 | 0.0 | 0.00 | 0.00 | 0.00 | 93 | 1016.1 |
| 20260906091252 | 70 | 75 | 2.6 | 0.0 | 0.00 | 0.00 | 0.00 | 93 | 1016.1 |
| 20260906090251 | 70 | 105 | 0.9 | 0.0 | 0.00 | 0.00 | 0.00 | 93 | 1016.0 |
| 20260906085751 | 70 | 321 | 0.0 | 0.0 | 0.00 | 0.00 | 0.00 | 93 | 1016.0 |
| 20260906085250 | 70 | 88 | 0.0 | 0.0 | 0.00 | 0.00 | 0.00 | 93 | 1016.0 |
| 20260906084750 | 70 | 61 | 0.9 | 0.0 | 0.00 | 0.00 | 0.00 | 93 | 1016.0 |
| 20260906084250 | 70 | 268 | 0.0 | 0.0 | 0.00 | 0.00 | 0.00 | 93 | 1016.1 |
| 20260906083249 | 70 | 175 | 0.0 | 0.0 | 0.00 | 0.00 | 0.00 | 94 | 1016.0 |
| 20260906082749 | 70 | 88 | 2.6 | 0.0 | 0.00 | 0.00 | 0.00 | 94 | 1016.0 |
| 20260906082249 | 70 | 59 | 3.5 | 0.0 | 0.00 | 0.00 | 0.00 | 94 | 1016.0 |
| 20260906081749 | 70 | 42 | 0.9 | 0.0 | 0.00 | 0.00 | 0.00 | 94 | 1016.0 |
| 20260906081249 | 70 | 65 | 1.7 | 0.0 | 0.00 | 0.00 | 0.00 | 94 | 1016.1 |
| 20260906080748 | 70 | 65 | 0.9 | 0.0 | 0.00 | 0.00 | 0.00 | 94 | 1016.1 |
| 20260906080248 | 70 | 34 | 1.7 | 0.0 | 0.00 | 0.00 | 0.00 | 94 | 1016.0 |
| 20260906075247 | 70 | 31 | 3.5 | 0.0 | 0.00 | 0.00 | 0.00 | 94 | 1016.1 |
| 20260906074747 | 70 | 46 | 0.0 | 0.0 | 0.00 | 0.00 | 0.00 | 94 | 1016.2 |
| 20260906074247 | 70 | 24 | 1.7 | 0.0 | 0.00 | 0.00 | 0.00 | 94 | 1016.1 |
| 20260906073746 | 69 | 77 | 0.9 | 0.0 | 0.00 | 0.00 | 0.00 | 94 | 1016.2 |
| 20260906073246 | 69 | 49 | 0.0 | 0.0 | 0.00 | 0.00 | 0.00 | 94 | 1016.2 |
| 20260906072746 | 69 | 61 | 0.9 | 0.0 | 0.00 | 0.00 | 0.00 | 94 | 1016.2 |
| 20260906071244 | 69 | 46 | 0.9 | 0.0 | 0.00 | 0.00 | 0.00 | 94 | 1016.2 |
| 20260906070744 | 69 | 79 | 0.9 | 0.0 | 0.00 | 0.00 | 0.00 | 94 | 1016.2 |
| 20260906070245 | 69 | 61 | 1.7 | 0.0 | 0.00 | 0.00 | 0.00 | 94 | 1016.2 |
| 20260906064742 | 69 | 50 | 0.9 | 0.0 | 0.00 | 0.00 | 0.00 | 94 | 1016.2 |
| 20260906064243 | 69 | 13 | 0.9 | 0.0 | 0.00 | 0.00 | 0.00 | 94 | 1016.3 |
| 20260906063241 | 69 | 65 | 0.0 | 0.0 | 0.00 | 0.00 | 0.00 | 94 | 1016.4 |
| 20260906062742 | 69 | 65 | 0.0 | 0.0 | 0.00 | 0.00 | 0.00 | 94 | 1016.5 |
| 20260906062241 | 69 | 64 | 0.0 | 0.0 | 0.00 | 0.00 | 0.00 | 94 | 1016.5 |
| 20260906061742 | 69 | 64 | 0.0 | 0.0 | 0.00 | 0.00 | 0.00 | 94 | 1016.6 |
| 20260906061241 | 70 | 65 | 0.0 | 0.0 | 0.00 | 0.00 | 0.00 | 94 | 1016.6 |
| 20260906060240 | 70 | 64 | 0.0 | 0.0 | 0.00 | 0.00 | 0.00 | 94 | 1016.6 |
| 20260906054740 | 70 | 65 | 0.0 | 0.0 | 0.00 | 0.00 | 0.00 | 94 | 1016.4 |
| 20260906054239 | 70 | 39 | 0.0 | 0.0 | 0.00 | 0.00 | 0.00 | 94 | 1016.4 |
| 20260906053239 | 70 | 58 | 3.5 | 0.0 | 0.00 | 0.00 | 0.00 | 94 | 1016.3 |
| 20260906051737 | 70 | 72 | 2.6 | 0.0 | 0.00 | 0.00 | 0.00 | 94 | 1016.1 |
| 20260906051238 | 70 | 88 | 4.3 | 0.0 | 0.00 | 0.00 | 0.00 | 94 | 1016.0 |
| 20260906050236 | 70 | 97 | 8.7 | 0.0 | 0.00 | 0.00 | 0.00 | 94 | 1016.0 |
| 20260906045737 | 70 | 90 | 6.1 | 0.0 | 0.00 | 0.00 | 0.00 | 94 | 1015.8 |
| 20260906044736 | 70 | 81 | 4.3 | 0.0 | 0.00 | 0.00 | 0.00 | 94 | 1015.8 |
| 20260906044236 | 70 | 98 | 6.1 | 0.0 | 0.00 | 0.00 | 0.00 | 94 | 1015.6 |
| 20260906043736 | 71 | 89 | 6.1 | 0.0 | 0.00 | 0.00 | 0.00 | 94 | 1015.5 |
| 20260906043236 | 71 | 79 | 7.0 | 0.0 | 0.00 | 0.00 | 0.00 | 94 | 1015.6 |
| 20260906042736 | 71 | 97 | 2.6 | 0.0 | 0.00 | 0.00 | 0.00 | 94 | 1015.5 |
| 20260906042235 | 71 | 94 | 5.2 | 0.0 | 0.00 | 0.00 | 0.00 | 94 | 1015.5 |
| 20260906041316 | 71 | 86 | 3.5 | 0.0 | 0.00 | 0.00 | 0.00 | 94 | 1015.3 |
| 20260906041234 | 71 | 86 | 3.5 | 0.0 | 0.00 | 0.00 | 0.00 | 94 | 1015.3 |
| 20260906041041 | 71 | 94 | 3.5 | 0.0 | 0.00 | 0.00 | 0.00 | 94 | 1015.3 |
| 20260906040734 | 71 | 94 | 3.5 | 0.0 | 0.00 | 0.00 | 0.00 | 94 | 1015.3 |
| 20260906040233 | 71 | 98 | 6.1 | 0.0 | 0.00 | 0.00 | 0.00 | 94 | 1015.2 |
| 20260906035232 | 71 | 90 | 3.5 | 0.0 | 0.00 | 0.00 | 0.00 | 94 | 1015.1 |
| 20260906035132 | 71 | 80 | 3.5 | 0.0 | 0.00 | 0.00 | 0.00 | 94 | 1015.1 |
| 20260906034732 | 71 | 80 | 3.5 | 0.0 | 0.00 | 0.00 | 0.00 | 94 | 1015.1 |
| 20260906034507 | 72 | 111 | 6.1 | 0.0 | 0.00 | 0.00 | 0.00 | 94 | 1015.1 |
| 20260906034232 | 72 | 111 | 6.1 | 0.0 | 0.00 | 0.00 | 0.00 | 94 | 1015.1 |
| 20260906032732 | 72 | 90 | 7.0 | 0.0 | 0.00 | 0.00 | 0.00 | 93 | 1015.0 |
| 20260906032232 | 72 | 97 | 6.1 | 0.0 | 0.00 | 0.00 | 0.00 | 93 | 1014.9 |
| 20260906031730 | 72 | 82 | 6.1 | 0.0 | 0.00 | 0.00 | 0.00 | 93 | 1014.9 |
| 20260906031231 | 72 | 94 | 6.1 | 0.0 | 0.00 | 0.00 | 0.00 | 93 | 1014.9 |
| 20260906030231 | 72 | 92 | 5.2 | 0.0 | 0.00 | 0.00 | 0.00 | 94 | 1015.0 |
| 20260906025731 | 72 | 86 | 2.6 | 0.0 | 0.00 | 0.00 | 0.00 | 94 | 1015.0 |
| 20260906025552 | 72 | 85 | 2.6 | 0.0 | 0.00 | 0.00 | 0.00 | 94 | 1015.0 |
| 20260906025229 | 72 | 85 | 2.6 | 0.0 | 0.00 | 0.00 | 0.00 | 94 | 1015.0 |
| 20260906024230 | 72 | 83 | 2.6 | 0.0 | 0.00 | 0.00 | 0.00 | 94 | 1014.9 |
| 20260906023729 | 73 | 69 | 2.6 | 0.0 | 0.00 | 0.00 | 0.00 | 93 | 1014.7 |
| 20260906023228 | 73 | 69 | 3.5 | 0.0 | 0.00 | 0.00 | 0.00 | 94 | 1014.6 |
| 20260906022728 | 73 | 65 | 3.5 | 0.0 | 0.00 | 0.00 | 0.00 | 93 | 1014.6 |
| 20260906021227 | 73 | 89 | 2.6 | 0.0 | 0.00 | 0.00 | 0.00 | 93 | 1014.7 |
| 20260906020727 | 73 | 72 | 2.6 | 0.0 | 0.00 | 0.00 | 0.00 | 93 | 1014.7 |
| 20260906020226 | 74 | 68 | 3.5 | 0.0 | 0.00 | 0.00 | 0.00 | 92 | 1014.6 |
| 20260906015726 | 74 | 83 | 2.6 | 0.0 | 0.00 | 0.00 | 0.00 | 92 | 1014.5 |
| 20260906015226 | 74 | 69 | 3.5 | 0.0 | 0.00 | 0.00 | 0.00 | 92 | 1014.4 |
| 20260906014725 | 74 | 99 | 3.5 | 0.0 | 0.00 | 0.00 | 0.00 | 92 | 1014.3 |
| 20260906014226 | 75 | 94 | 2.6 | 0.0 | 0.00 | 0.00 | 0.00 | 92 | 1014.2 |
| 20260906013726 | 75 | 80 | 3.5 | 0.0 | 0.00 | 0.00 | 0.00 | 91 | 1014.2 |
| 20260906012726 | 75 | 80 | 6.1 | 0.0 | 0.00 | 0.00 | 0.00 | 91 | 1014.0 |
| 20260906012225 | 75 | 68 | 7.0 | 0.0 | 0.00 | 0.00 | 0.00 | 91 | 1014.0 |
| 20260906011725 | 76 | 70 | 3.5 | 0.0 | 0.00 | 0.00 | 0.00 | 91 | 1013.9 |
| 20260906011225 | 76 | 76 | 6.1 | 0.0 | 0.00 | 0.00 | 0.00 | 90 | 1013.9 |
| 20260906010723 | 76 | 64 | 5.2 | 0.0 | 0.00 | 0.00 | 0.00 | 90 | 1013.8 |
| 20260906010224 | 77 | 71 | 9.6 | 0.0 | 0.00 | 0.00 | 0.00 | 90 | 1013.7 |
| 20260906005724 | 77 | 93 | 7.8 | 0.0 | 0.00 | 0.00 | 0.00 | 90 | 1013.7 |
| 20260906003946 | 78 | 86 | 4.3 | 0.0 | 0.00 | 0.00 | 0.00 | 88 | 1013.5 |
| 20260906003722 | 78 | 86 | 4.3 | 0.0 | 0.00 | 0.00 | 0.00 | 88 | 1013.5 |
| 20260906003223 | 79 | 49 | 8.7 | 0.0 | 0.00 | 0.00 | 0.00 | 87 | 1013.5 |
| 20260906002221 | 80 | 64 | 9.6 | 0.0 | 0.00 | 0.00 | 0.00 | 86 | 1013.5 |
| 20260906001721 | 80 | 37 | 8.7 | 0.0 | 0.00 | 0.00 | 0.00 | 86 | 1013.6 |
| 20260906000721 | 81 | 83 | 9.6 | 0.0 | 0.00 | 0.00 | 0.00 | 84 | 1013.5 |
| 20260905235720 | 82 | 55 | 8.7 | 0.0 | 0.00 | 0.00 | 0.00 | 83 | 1013.5 |
| 20260905234720 | 83 | 91 | 2.6 | 0.0 | 0.00 | 0.00 | 0.00 | 81 | 1013.4 |
| 20260905234219 | 84 | 74 | 8.7 | 0.0 | 0.00 | 0.00 | 0.00 | 80 | 1013.2 |
| 20260905233718 | 84 | 61 | 4.3 | 0.0 | 0.00 | 0.00 | 0.00 | 81 | 1013.2 |
| 20260905233219 | 84 | 46 | 0.9 | 0.0 | 0.00 | 0.00 | 0.00 | 80 | 1013.0 |
| 20260905232218 | 84 | 72 | 11.3 | 0.0 | 0.00 | 0.00 | 0.00 | 79 | 1012.9 |
| 20260905231718 | 85 | 83 | 7.0 | 0.0 | 0.00 | 0.00 | 0.00 | 79 | 1012.9 |
| 20260905231218 | 85 | 44 | 7.8 | 0.0 | 0.00 | 0.00 | 0.00 | 79 | 1012.8 |
| 20260905230717 | 85 | 65 | 7.8 | 0.0 | 0.00 | 0.00 | 0.00 | 79 | 1012.8 |
| 20260905230217 | 85 | 68 | 7.0 | 0.0 | 0.00 | 0.00 | 0.00 | 79 | 1012.9 |
| 20260905225746 | 86 | 47 | 6.1 | 0.0 | 0.00 | 0.00 | 0.00 | 79 | 1013.2 |
| 20260905225717 | 86 | 61 | 2.6 | 0.0 | 0.00 | 0.00 | 0.00 | 78 | 1013.1 |
| 20260905225217 | 86 | 47 | 6.1 | 0.0 | 0.00 | 0.00 | 0.00 | 79 | 1013.2 |
| 20260905224717 | 86 | 63 | 7.0 | 0.0 | 0.00 | 0.00 | 0.00 | 78 | 1013.1 |
| 20260905224216 | 87 | 51 | 8.7 | 0.0 | 0.00 | 0.00 | 0.00 | 77 | 1013.0 |
| 20260905223215 | 87 | 43 | 3.5 | 0.0 | 0.00 | 0.00 | 0.00 | 77 | 1013.0 |
| 20260905222215 | 88 | 341 | 4.3 | 0.0 | 0.00 | 0.00 | 0.00 | 77 | 1013.0 |
| 20260905221715 | 88 | 18 | 0.9 | 0.0 | 0.00 | 0.00 | 0.00 | 79 | 1012.8 |
| 20260905221215 | 88 | 93 | 7.0 | 0.0 | 0.00 | 0.00 | 0.00 | 77 | 1012.7 |
| 20260905220214 | 89 | 86 | 3.5 | 0.0 | 0.00 | 0.00 | 0.00 | 76 | 1012.6 |
| 20260905215714 | 89 | 96 | 1.7 | 0.0 | 0.00 | 0.00 | 0.00 | 76 | 1012.6 |
| 20260905215213 | 89 | 82 | 9.6 | 0.0 | 0.00 | 0.00 | 0.00 | 74 | 1012.6 |
| 20260905214713 | 90 | 78 | 3.5 | 0.0 | 0.00 | 0.00 | 0.00 | 75 | 1012.7 |
| 20260905214213 | 90 | 230 | 1.7 | 0.0 | 0.00 | 0.00 | 0.00 | 76 | 1012.7 |
| 20260905213212 | 90 | 41 | 2.6 | 0.0 | 0.00 | 0.00 | 0.00 | 74 | 1012.5 |
| 20260905212712 | 91 | 68 | 4.3 | 0.0 | 0.00 | 0.00 | 0.00 | 71 | 1012.5 |
| 20260905212212 | 91 | 350 | 0.9 | 0.0 | 0.00 | 0.00 | 0.00 | 71 | 1012.5 |
| 20260905211711 | 91 | 227 | 1.7 | 0.0 | 0.00 | 0.00 | 0.00 | 74 | 1012.5 |
| 20260905211211 | 91 | 355 | 3.5 | 0.0 | 0.00 | 0.00 | 0.00 | 73 | 1012.5 |
| 20260905210210 | 91 | 67 | 3.5 | 0.0 | 0.00 | 0.00 | 0.00 | 74 | 1012.6 |
| 20260905205710 | 91 | 307 | 1.7 | 0.0 | 0.00 | 0.00 | 0.00 | 75 | 1012.6 |
| 20260905205210 | 91 | 253 | 0.9 | 0.0 | 0.00 | 0.00 | 0.00 | 74 | 1012.6 |
| 20260905203709 | 91 | 203 | 0.9 | 0.0 | 0.00 | 0.00 | 0.00 | 74 | 1012.8 |
| 20260905203209 | 92 | 178 | 0.9 | 0.0 | 0.00 | 0.00 | 0.00 | 71 | 1012.8 |
| 20260905202708 | 93 | 109 | 1.7 | 0.0 | 0.00 | 0.00 | 0.00 | 71 | 1012.8 |
| 20260905201708 | 92 | 13 | 3.5 | 0.0 | 0.00 | 0.00 | 0.00 | 72 | 1012.9 |
| 20260905200709 | 92 | 350 | 7.0 | 0.0 | 0.00 | 0.00 | 0.00 | 71 | 1012.9 |
| 20260905200207 | 92 | 37 | 3.5 | 0.0 | 0.00 | 0.00 | 0.00 | 72 | 1012.9 |
| 20260905195707 | 91 | 314 | 0.9 | 0.0 | 0.00 | 0.00 | 0.00 | 73 | 1012.8 |
| 20260905195206 | 92 | 33 | 1.7 | 0.0 | 0.00 | 0.00 | 0.00 | 72 | 1012.8 |
| 20260905194706 | 92 | 70 | 3.5 | 0.0 | 0.00 | 0.00 | 0.00 | 71 | 1012.8 |
| 20260905194206 | 92 | 118 | 0.9 | 0.0 | 0.00 | 0.00 | 0.00 | 72 | 1012.9 |
| 20260905193706 | 91 | 28 | 3.5 | 0.0 | 0.00 | 0.00 | 0.00 | 73 | 1012.9 |
| 20260905192705 | 92 | 90 | 5.2 | 0.0 | 0.00 | 0.00 | 0.00 | 72 | 1013.0 |
| 20260905192205 | 92 | 355 | 1.7 | 0.0 | 0.00 | 0.00 | 0.00 | 71 | 1013.1 |
| 20260905191204 | 92 | 59 | 0.0 | 0.0 | 0.00 | 0.00 | 0.00 | 70 | 1013.1 |
| 20260905190704 | 93 | 244 | 0.9 | 0.0 | 0.00 | 0.00 | 0.00 | 71 | 1013.1 |
| 20260905185703 | 92 | 189 | 2.6 | 0.0 | 0.00 | 0.00 | 0.00 | 72 | 1013.2 |
| 20260905185203 | 93 | 71 | 7.0 | 0.0 | 0.00 | 0.00 | 0.00 | 70 | 1013.3 |
| 20260905184703 | 92 | 26 | 1.7 | 0.0 | 0.00 | 0.00 | 0.00 | 69 | 1013.3 |
| 20260905184203 | 92 | 62 | 3.5 | 0.0 | 0.00 | 0.00 | 0.00 | 71 | 1013.3 |
| 20260905183202 | 92 | 337 | 1.7 | 0.0 | 0.00 | 0.00 | 0.00 | 70 | 1013.4 |
| 20260905182202 | 92 | 56 | 0.9 | 0.0 | 0.00 | 0.00 | 0.00 | 70 | 1013.4 |
| 20260905181701 | 92 | 132 | 0.0 | 0.0 | 0.00 | 0.00 | 0.00 | 73 | 1013.5 |
| 20260905181238 | 92 | 14 | 1.7 | 0.0 | 0.00 | 0.00 | 0.00 | 72 | 1013.5 |
| 20260905181201 | 92 | 14 | 1.7 | 0.0 | 0.00 | 0.00 | 0.00 | 72 | 1013.5 |
| 20260905180200 | 91 | 15 | 0.9 | 0.0 | 0.00 | 0.00 | 0.00 | 72 | 1013.6 |
| 20260905175700 | 91 | 41 | 1.7 | 0.0 | 0.00 | 0.00 | 0.00 | 73 | 1013.6 |
| 20260905175200 | 92 | 80 | 4.3 | 0.0 | 0.00 | 0.00 | 0.00 | 69 | 1013.5 |
| 20260905174159 | 92 | 77 | 2.6 | 0.0 | 0.00 | 0.00 | 0.00 | 73 | 1013.6 |
| 20260905173158 | 91 | 58 | 4.3 | 0.0 | 0.00 | 0.00 | 0.00 | 73 | 1013.6 |
| 20260905172658 | 91 | 350 | 1.7 | 0.0 | 0.00 | 0.00 | 0.00 | 75 | 1013.6 |
| 20260905172158 | 90 | 59 | 1.7 | 0.0 | 0.00 | 0.00 | 0.00 | 75 | 1013.7 |
| 20260905170657 | 91 | 145 | 0.9 | 0.0 | 0.00 | 0.00 | 0.00 | 74 | 1013.7 |
| 20260905165657 | 90 | 57 | 3.5 | 0.0 | 0.00 | 0.00 | 0.00 | 74 | 1013.9 |
| 20260905165156 | 90 | 68 | 1.7 | 0.0 | 0.00 | 0.00 | 0.00 | 75 | 1013.9 |
| 20260905164656 | 90 | 45 | 4.3 | 0.0 | 0.00 | 0.00 | 0.00 | 77 | 1013.9 |
| 20260905164156 | 89 | 61 | 0.9 | 0.0 | 0.00 | 0.00 | 0.00 | 77 | 1013.9 |
| 20260905163155 | 89 | 30 | 2.6 | 0.0 | 0.00 | 0.00 | 0.00 | 77 | 1013.9 |
| 20260905162655 | 89 | 71 | 3.5 | 0.0 | 0.00 | 0.00 | 0.00 | 76 | 1014.0 |
| 20260905161654 | 89 | 263 | 0.0 | 0.0 | 0.00 | 0.00 | 0.00 | 79 | 1014.0 |
| 20260905160153 | 88 | 29 | 2.6 | 0.0 | 0.00 | 0.00 | 0.00 | 79 | 1013.9 |
| 20260905155653 | 88 | 22 | 2.6 | 0.0 | 0.00 | 0.00 | 0.00 | 77 | 1013.9 |
| 20260905155153 | 88 | 124 | 0.9 | 0.0 | 0.00 | 0.00 | 0.00 | 79 | 1013.9 |
| 20260905154653 | 88 | 94 | 0.9 | 0.0 | 0.00 | 0.00 | 0.00 | 79 | 1013.9 |
| 20260905154152 | 88 | 323 | 2.6 | 0.0 | 0.00 | 0.00 | 0.00 | 79 | 1013.9 |
| 20260905152651 | 88 | 296 | 1.7 | 0.0 | 0.00 | 0.00 | 0.00 | 79 | 1013.7 |
| 20260905151651 | 87 | 5 | 1.7 | 0.0 | 0.00 | 0.00 | 0.00 | 80 | 1013.6 |
| 20260905150650 | 86 | 360 | 2.6 | 0.0 | 0.00 | 0.00 | 0.00 | 80 | 1013.6 |
| 20260905150151 | 86 | 293 | 0.9 | 0.0 | 0.00 | 0.00 | 0.00 | 81 | 1013.6 |
| 20260905145149 | 85 | 34 | 1.7 | 0.0 | 0.00 | 0.00 | 0.00 | 80 | 1013.6 |
| 20260905144653 | 85 | 345 | 2.6 | 0.0 | 0.00 | 0.00 | 0.00 | 80 | 1013.4 |
| 20260905144649 | 85 | 30 | 5.2 | 0.0 | 0.00 | 0.00 | 0.00 | 80 | 1013.5 |
| 20260905144451 | 85 | 345 | 2.6 | 0.0 | 0.00 | 0.00 | 0.00 | 80 | 1013.4 |
| 20260905144148 | 85 | 345 | 2.6 | 0.0 | 0.00 | 0.00 | 0.00 | 80 | 1013.4 |
| 20260905143648 | 85 | 201 | 0.9 | 0.0 | 0.00 | 0.00 | 0.00 | 81 | 1013.4 |
| 20260905143147 | 84 | 317 | 1.7 | 0.0 | 0.00 | 0.00 | 0.00 | 81 | 1013.4 |
| 20260905142648 | 84 | 17 | 2.6 | 0.0 | 0.00 | 0.00 | 0.00 | 81 | 1013.3 |
| 20260905142147 | 84 | 360 | 1.7 | 0.0 | 0.00 | 0.00 | 0.00 | 80 | 1013.4 |
| 20260905141646 | 84 | 28 | 7.0 | 0.0 | 0.00 | 0.00 | 0.00 | 81 | 1013.2 |
| 20260905141146 | 84 | 355 | 2.6 | 0.0 | 0.00 | 0.00 | 0.00 | 82 | 1013.2 |
| 20260905140647 | 83 | 5 | 5.2 | 0.0 | 0.00 | 0.00 | 0.00 | 82 | 1013.3 |
| 20260905135645 | 83 | 360 | 2.6 | 0.0 | 0.00 | 0.00 | 0.00 | 85 | 1013.3 |
| 20260905135404 | 82 | 295 | 0.9 | 0.0 | 0.00 | 0.00 | 0.00 | 88 | 1013.3 |
| 20260905135145 | 82 | 295 | 0.9 | 0.0 | 0.00 | 0.00 | 0.00 | 88 | 1013.3 |
| 20260905134647 | 81 | 277 | 0.9 | 0.0 | 0.00 | 0.00 | 0.00 | 90 | 1013.2 |
| 20260905134533 | 80 | 300 | 1.7 | 0.0 | 0.00 | 0.00 | 0.00 | 92 | 1013.2 |
| 20260905134144 | 80 | 300 | 1.7 | 0.0 | 0.00 | 0.00 | 0.00 | 92 | 1013.2 |
| 20260905133920 | 79 | 291 | 1.7 | 0.0 | 0.00 | 0.00 | 0.00 | 92 | 1013.3 |
| 20260905133644 | 79 | 291 | 1.7 | 0.0 | 0.00 | 0.00 | 0.00 | 92 | 1013.3 |
| 20260905133536 | 79 | 325 | 1.7 | 0.0 | 0.00 | 0.00 | 0.00 | 93 | 1013.3 |
| 20260905133146 | 79 | 281 | 0.0 | 0.0 | 0.00 | 0.00 | 0.00 | 93 | 1013.3 |
| 20260905133144 | 79 | 325 | 1.7 | 0.0 | 0.00 | 0.00 | 0.00 | 93 | 1013.3 |
| 20260905132543 | 78 | 294 | 2.6 | 0.0 | 0.00 | 0.00 | 0.00 | 93 | 1013.4 |
| 20260905132144 | 78 | 294 | 2.6 | 0.0 | 0.00 | 0.00 | 0.00 | 93 | 1013.4 |
| 20260905131643 | 78 | 269 | 5.2 | 0.0 | 0.00 | 0.00 | 0.00 | 93 | 1013.3 |
| 20260905131439 | 77 | 281 | 3.5 | 0.0 | 0.00 | 0.00 | 0.00 | 93 | 1013.3 |
| 20260905131143 | 77 | 281 | 3.5 | 0.0 | 0.00 | 0.00 | 0.00 | 93 | 1013.3 |
| 20260905130642 | 76 | 281 | 5.2 | 0.0 | 0.00 | 0.00 | 0.00 | 93 | 1013.2 |
| 20260905130142 | 76 | 271 | 3.5 | 0.0 | 0.00 | 0.00 | 0.00 | 94 | 1013.1 |
| 20260905125458 | 75 | 273 | 3.5 | 0.0 | 0.00 | 0.00 | 0.00 | 93 | 1012.9 |
| 20260905125142 | 75 | 273 | 3.5 | 0.0 | 0.00 | 0.00 | 0.00 | 93 | 1012.9 |
| 20260905124907 | 75 | 268 | 2.6 | 0.0 | 0.00 | 0.00 | 0.00 | 93 | 1012.9 |
| 20260905124641 | 75 | 268 | 2.6 | 0.0 | 0.00 | 0.00 | 0.00 | 93 | 1012.9 |
| 20260905124141 | 75 | 271 | 2.6 | 0.0 | 0.00 | 0.00 | 0.00 | 93 | 1013.0 |
| 20260905123641 | 75 | 254 | 2.6 | 0.0 | 0.00 | 0.00 | 0.00 | 93 | 1013.0 |